Memphis, TN

11:01 AM CST on February 09, 2016 (GMT -0600)
Memphis International

Weather History for KMEM - October, 2012

Change the Weather History Date:

Friday, October 12, 2012

  Actual Average Record
Temperature  
Mean Temperature 68 °F 65 °F  
Max Temperature 75 °F 76 °F 92 °F (1975)
Min Temperature 60 °F 55 °F 35 °F (1875)
Degree Days  
Heating Degree Days 0 3  
Month to date heating degree days 56 25  
Since 1 July heating degree days 58 36  
Cooling Degree Days 3 3  
Month to date cooling degree days 12 52  
Year to date cooling degree days 2566 2203  
Growing Degree Days 17 (Base 50)    
Moisture  
Dew Point 62 °F    
Average Humidity 85    
Maximum Humidity 100    
Minimum Humidity 69    
Precipitation  
Precipitation 0.00 in 0.12 in 1.58 in (1955)
Month to date precipitation 1.41 1.41  
Year to date precipitation 28.02 39.88  
Snow  
Snow 0.00 in 0.00 in 0.00 in (2002)
Month to date snowfall 0.0 0.0  
Since 1 July snowfall 0.0 0.0  
Since 1 September snowfall 0.0 0.0  
Snow Depth 0.00 in    
Sea Level Pressure  
Sea Level Pressure 30.22 in    
Wind  
Wind Speed 6 mph (ENE)    
Max Wind Speed 13 mph    
Max Gust Speed 17 mph    
Visibility 7 miles    
Events      
T = Trace of Precipitation, MM = Missing Value Source: NWS Daily Summary

Daily Weather History Graph

Daily Weather History Graph

Search for Another Location

Airport or City:

Trip Planner

Search our weather history database for the weather conditions in past years. The results will help you decide how hot, cold, wet, or windy it might be!

Date:

Astronomy

Oct. 12, 2012 Rise Set
Actual Time 7:03 AM CDT 6:28 PM CDT
Civil Twilight 6:38 AM CDT 6:53 PM CDT
Nautical Twilight 6:08 AM CDT 7:22 PM CDT
Astronomical Twilight 5:39 AM CDT 7:52 PM CDT
Moon 3:53 AM CDT (10/12) 4:33 PM CDT (10/12)
Length of Visible Light 12h 15m
Length of Day
11h 24m
Waning Crescent, 10% of the Moon is Illuminated
Oct 12
Waning Crescent
Oct 15
New
Oct 21
First Quarter
Oct 29
Full
Nov 6
Last Quarter

Hourly Weather History & Observations

Time (CDT) Temp. Dew Point Humidity Pressure Visibility Wind Dir Wind Speed Gust Speed Precip Events Conditions
12:54 AM 62.1 °F 57.9 °F 86% 30.18 in 10.0 mi SSE 5.8 mph - N/A   Scattered Clouds
1:54 AM 60.1 °F 57.0 °F 90% 30.18 in 10.0 mi Calm Calm - N/A   Partly Cloudy
2:54 AM 62.1 °F 59.0 °F 90% 30.17 in 9.0 mi South 5.8 mph - N/A   Partly Cloudy
3:54 AM 64.0 °F 61.0 °F 90% 30.17 in 9.0 mi SW 4.6 mph - N/A   Partly Cloudy
4:54 AM 64.9 °F 62.1 °F 90% 30.17 in 9.0 mi SSW 9.2 mph - N/A   Mostly Cloudy
5:54 AM 66.0 °F 62.1 °F 87% 30.17 in 9.0 mi SSW 10.4 mph - N/A   Partly Cloudy
6:54 AM 66.0 °F 63.0 °F 90% 30.19 in 7.0 mi SSW 6.9 mph - N/A   Scattered Clouds
7:54 AM 66.9 °F 63.0 °F 87% 30.22 in 6.0 mi NNW 5.8 mph - N/A   Mostly Cloudy
8:28 AM 66.2 °F 64.4 °F 94% 30.24 in 5.0 mi Calm Calm - N/A   Overcast
8:46 AM 68.0 °F 64.4 °F 88% 30.25 in 5.0 mi NNW 3.5 mph - N/A   Overcast
9:54 AM 64.9 °F 62.1 °F 90% 30.28 in 6.0 mi NNE 8.1 mph - N/A   Overcast
10:54 AM 68.0 °F 62.6 °F 83% 30.30 in 6.0 mi ENE 5.8 mph - N/A   Haze
11:19 AM 69.8 °F 62.6 °F 78% 30.29 in 7.0 mi NE 6.9 mph - N/A   Overcast
11:54 AM 68.0 °F 62.6 °F 83% 30.30 in 7.0 mi NNE 3.5 mph - N/A   Overcast
12:16 PM 69.8 °F 62.6 °F 78% 30.29 in 7.0 mi Calm Calm - N/A   Overcast
12:38 PM 69.8 °F 62.6 °F 78% 30.27 in 7.0 mi SE 3.5 mph - N/A   Overcast
12:54 PM 71.1 °F 63.0 °F 75% 30.27 in 8.0 mi Calm Calm - N/A   Overcast
1:54 PM 73.0 °F 64.0 °F 73% 30.23 in 9.0 mi Variable 3.5 mph - N/A   Overcast
2:54 PM 73.9 °F 64.0 °F 71% 30.21 in 9.0 mi Variable 3.5 mph - N/A   Overcast
3:54 PM 75.0 °F 64.0 °F 69% 30.21 in 8.0 mi East 3.5 mph - N/A   Overcast
4:54 PM 75.2 °F 64.4 °F 69% 30.22 in 9.0 mi NNW 4.6 mph - N/A   Overcast
5:54 PM 72.0 °F 64.0 °F 76% 30.19 in 7.0 mi North 5.8 mph - N/A   Overcast
6:54 PM 69.1 °F 64.0 °F 84% 30.19 in 9.0 mi NNE 8.1 mph - N/A   Mostly Cloudy
7:54 PM 66.9 °F 62.1 °F 84% 30.21 in 10.0 mi NE 9.2 mph - N/A   Mostly Cloudy
8:54 PM 64.4 °F 62.6 °F 94% 30.22 in 10.0 mi NE 9.2 mph - N/A   Mostly Cloudy
9:22 PM 64.4 °F 62.6 °F 94% 30.21 in 10.0 mi East 6.9 mph - N/A   Overcast
9:43 PM 64.4 °F 62.6 °F 94% 30.23 in 6.0 mi NE 8.1 mph - N/A   Overcast
9:54 PM 64.9 °F 62.1 °F 90% 30.22 in 6.0 mi ENE 8.1 mph - N/A   Overcast
10:31 PM 64.4 °F 62.6 °F 94% 30.22 in 1.0 mi East 6.9 mph - N/A   Overcast
10:54 PM 64.9 °F 63.0 °F 93% 30.22 in 2.0 mi East 5.8 mph - N/A   Overcast
11:17 PM 64.4 °F 62.6 °F 94% 30.21 in 1.2 mi East 8.1 mph - N/A   Overcast
11:54 PM 64.9 °F 64.0 °F 97% 30.21 in 0.8 mi East 6.9 mph - N/A   Mist